,,PA_Meas_PMT16A,,PR_Meas_QMR101_102,,RH_Meas_QMH101,,SR_Meas_QMS101,,TA_Meas_QMH101,,GenWind,,GenWind,
time,status,PA,status,PR,status,RH,status,SR,status,TA,status,DirAvg,status,SpdAvg,
2011-01-27, 00:00:04,VALID,918.12,VALID,0,VALID,90.7415,VALID,0,VALID,19.5858,VALID,134,VALID,1.23477,
2011-01-27, 00:01:04,VALID,918.094,VALID,0,VALID,90.7568,VALID,0,VALID,19.6248,VALID,134,VALID,1.05625,
2011-01-27, 00:02:04,VALID,918.137,VALID,0,VALID,90.8559,VALID,0,VALID,19.6053,VALID,134,VALID,1.62305,
2011-01-27, 00:03:04,VALID,918.129,VALID,0,VALID,90.8025,VALID,0,VALID,19.6248,VALID,137,VALID,1.17344,
2011-01-27, 00:04:04,VALID,918.138,VALID,0,VALID,91.0312,VALID,0,VALID,19.6248,VALID,144,VALID,1.17227,
2011-01-27, 00:05:04,VALID,918.151,VALID,0,VALID,90.894,VALID,0,VALID,19.5858,VALID,118,VALID,1.4793,
2011-01-27, 00:06:04,VALID,918.142,VALID,0,VALID,91.0541,VALID,0,VALID,19.6053,VALID,132,VALID,0.830469,
2011-01-27, 00:07:04,VALID,918.143,VALID,0,VALID,91.0312,VALID,0,VALID,19.5858,VALID,132,VALID,1.28594,
2011-01-27, 00:08:04,VALID,918.156,VALID,0,VALID,91.077,VALID,0,VALID,19.6053,VALID,125,VALID,1.04492,
2011-01-27, 00:09:04,VALID,918.116,VALID,0,VALID,91.1913,VALID,0,VALID,19.6068,VALID,114,VALID,0.8125,
2011-01-27, 00:10:04,VALID,918.137,VALID,0,VALID,91.2904,VALID,0,VALID,19.5873,VALID,130,VALID,0.710547,
2011-01-27, 00:11:04,VALID,918.123,VALID,0,VALID,91.4048,VALID,0,VALID,19.5873,VALID,130,VALID,0.839844,
2011-01-27, 00:12:04,VALID,918.118,VALID,0,VALID,91.5115,VALID,0,VALID,19.5468,VALID,130,VALID,0.617969,
2011-01-27, 00:13:04,VALID,918.142,VALID,0,VALID,91.6335,VALID,0,VALID,19.5453,VALID,130,VALID,0.863281,
2011-01-27, 00:14:04,VALID,918.123,VALID,0,VALID,91.7249,VALID,0,VALID,19.5468,VALID,130,VALID,0.875781,
2011-01-27, 00:15:04,VALID,918.105,VALID,0,VALID,91.7631,VALID,0,VALID,19.5273,VALID,130,VALID,0.582812,
2011-01-27, 00:16:04,VALID,918.123,VALID,0,VALID,91.8698,VALID,0,VALID,19.5468,VALID,130,VALID,0.474219,
2011-01-27, 00:17:04,VALID,918.135,VALID,0,VALID,91.9308,VALID,0,VALID,19.5468,VALID,130,VALID,0.438672,
2011-01-27, 00:18:04,VALID,918.098,VALID,0,VALID,91.9308,VALID,0,VALID,19.5468,VALID,130,VALID,0.933203,
2011-01-27, 00:19:04,VALID,918.101,VALID,0,VALID,91.9155,VALID,0,VALID,19.5468,VALID,130,VALID,0.680469,
2011-01-27, 00:20:04,VALID,918.071,VALID,0,VALID,91.9841,VALID,0,VALID,19.5468,VALID,130,VALID,0.532422,
2011-01-27, 00:21:04,VALID,918.089,VALID,0,VALID,92.0604,VALID,0,VALID,19.5273,VALID,130,VALID,0.723828,
2011-01-27, 00:22:04,VALID,918.058,VALID,0,VALID,92.2128,VALID,0,VALID,19.5273,VALID,130,VALID,0.466797,
2011-01-27, 00:23:04,VALID,918.048,VALID,0,VALID,92.3348,VALID,0,VALID,19.5078,VALID,130,VALID,0.720703,
2011-01-27, 00:24:04,VALID,918.033,VALID,0,VALID,92.3958,VALID,0,VALID,19.4868,VALID,131,VALID,0.858594,
2011-01-27, 00:25:04,VALID,918.014,VALID,0,VALID,92.4492,VALID,0,VALID,19.4883,VALID,130,VALID,0.726953,
2011-01-27, 00:26:04,VALID,917.985,VALID,0,VALID,92.2281,VALID,0,VALID,19.5078,VALID,130,VALID,1.00469,
2011-01-27, 00:27:04,VALID,917.968,VALID,0,VALID,92.1061,VALID,0,VALID,19.5273,VALID,130,VALID,1.07617,
2011-01-27, 00:28:04,VALID,917.957,VALID,0,VALID,92.007,VALID,0,VALID,19.5678,VALID,130,VALID,1.27422,
2011-01-27, 00:29:04,VALID,917.93,VALID,0,VALID,92.0146,VALID,0,VALID,19.5468,VALID,130,VALID,0.821875,
2011-01-27, 00:30:04,VALID,917.909,VALID,0,VALID,91.9689,VALID,0,VALID,19.5468,VALID,130,VALID,0.794922,
2011-01-27, 00:31:04,VALID,917.901,VALID,0,VALID,92.0146,VALID,0,VALID,19.5273,VALID,130,VALID,0.932813,
2011-01-27, 00:32:04,VALID,917.919,VALID,0,VALID,92.1366,VALID,0,VALID,19.5078,VALID,130,VALID,0.842578,
2011-01-27, 00:33:04,VALID,917.854,VALID,0,VALID,92.2052,VALID,0,VALID,19.5273,VALID,130,VALID,0.847266,
2011-01-27, 00:34:04,VALID,917.856,VALID,0,VALID,92.2967,VALID,0,VALID,19.5078,VALID,130,VALID,0.91875,
2011-01-27, 00:35:04,VALID,917.856,VALID,0,VALID,92.3196,VALID,0,VALID,19.4883,VALID,130,VALID,1.17109,
2011-01-27, 00:36:04,VALID,917.853,VALID,0,VALID,92.4263,VALID,0,VALID,19.4883,VALID,130,VALID,0.762891,
2011-01-27, 00:37:04,VALID,917.809,VALID,0,VALID,92.5025,VALID,0,VALID,19.4883,VALID,130,VALID,0.521875,
2011-01-27, 00:38:04,VALID,917.813,VALID,0,VALID,92.5711,VALID,0,VALID,19.4478,VALID,130,VALID,0.709766,
2011-01-27, 00:39:04,VALID,917.808,VALID,0,VALID,92.6169,VALID,0,VALID,19.4688,VALID,130,VALID,0.771484,
2011-01-27, 00:40:04,VALID,917.796,VALID,0,VALID,92.6779,VALID,0,VALID,19.4283,VALID,130,VALID,0.662109,
2011-01-27, 00:41:04,VALID,917.805,VALID,0,VALID,92.716,VALID,0,VALID,19.4493,VALID,130,VALID,0.834766,
2011-01-27, 00:42:04,VALID,917.798,VALID,0,VALID,92.7922,VALID,0,VALID,19.4298,VALID,130,VALID,0.747266,
2011-01-27, 00:43:04,VALID,917.78,VALID,0,VALID,92.777,VALID,0,VALID,19.4298,VALID,130,VALID,0.743359,
2011-01-27, 00:44:04,VALID,917.771,VALID,0,VALID,92.8456,VALID,0,VALID,19.4298,VALID,130,VALID,0.675781,
2011-01-27, 00:45:04,VALID,917.775,VALID,0,VALID,92.8913,VALID,0,VALID,19.4103,VALID,130,VALID,0.787891,
2011-01-27, 00:46:04,VALID,917.781,VALID,0,VALID,92.9752,VALID,0,VALID,19.4103,VALID,131,VALID,0.571875,
2011-01-27, 00:47:04,VALID,917.774,VALID,0,VALID,93.059,VALID,0,VALID,19.3908,VALID,130,VALID,0.758984,
2011-01-27, 00:48:04,VALID,917.825,VALID,0,VALID,93.1429,VALID,0,VALID,19.3908,VALID,130,VALID,0.861719,
2011-01-27, 00:49:04,VALID,917.81,VALID,0,VALID,93.242,VALID,0,VALID,19.3503,VALID,130,VALID,0.641797,
2011-01-27, 00:50:04,VALID,917.803,VALID,0,VALID,93.3106,VALID,0,VALID,19.3713,VALID,130,VALID,0.573828,
2011-01-27, 00:51:04,VALID,917.811,VALID,0,VALID,93.3564,VALID,0,VALID,19.3518,VALID,130,VALID,0.973828,
2011-01-27, 00:52:04,VALID,917.804,VALID,0,VALID,93.3868,VALID,0,VALID,19.3518,VALID,130,VALID,0.933984,
2011-01-27, 00:53:04,VALID,917.818,VALID,0,VALID,93.3945,VALID,0,VALID,19.3518,VALID,130,VALID,1.10312,
2011-01-27, 00:54:04,VALID,917.785,VALID,0,VALID,93.425,VALID,0,VALID,19.3923,VALID,130,VALID,0.991797,
2011-01-27, 00:55:04,VALID,917.764,VALID,0,VALID,93.3792,VALID,0,VALID,19.3503,VALID,130,VALID,0.73125,
2011-01-27, 00:56:04,VALID,917.74,VALID,0,VALID,93.4173,VALID,0,VALID,19.3713,VALID,130,VALID,0.622266,
2011-01-27, 00:57:04,VALID,917.73,VALID,0,VALID,93.3106,VALID,0,VALID,19.3713,VALID,130,VALID,1.37148,
2011-01-27, 00:58:04,VALID,917.705,VALID,0,VALID,93.2268,VALID,0,VALID,19.3908,VALID,130,VALID,1.05234,
2011-01-27, 00:59:04,VALID,917.684,VALID,0,VALID,93.2039,VALID,0,VALID,19.4103,VALID,137,VALID,1.37422,
2011-01-27, 01:00:04,VALID,917.685,VALID,0,VALID,93.0362,VALID,0,VALID,19.4298,VALID,152,VALID,1.42383,
2011-01-27, 01:01:04,VALID,917.647,VALID,0,VALID,92.8989,VALID,0,VALID,19.4493,VALID,144,VALID,1.18164,
2011-01-27, 01:02:04,VALID,917.652,VALID,0,VALID,92.8303,VALID,0,VALID,19.4688,VALID,143,VALID,1.08867,
2011-01-27, 01:03:04,VALID,917.638,VALID,0,VALID,92.8075,VALID,0,VALID,19.4493,VALID,143,VALID,0.874219,
2011-01-27, 01:04:04,VALID,917.65,VALID,0,VALID,92.8685,VALID,0,VALID,19.4493,VALID,143,VALID,0.698828,
2011-01-27, 01:05:04,VALID,917.651,VALID,0,VALID,92.8608,VALID,0,VALID,19.4298,VALID,144,VALID,1.07852,
2011-01-27, 01:06:04,VALID,917.661,VALID,0,VALID,92.8532,VALID,0,VALID,19.4298,VALID,144,VALID,1.08945,
2011-01-27, 01:07:04,VALID,917.628,VALID,0,VALID,92.7922,VALID,0,VALID,19.4298,VALID,149,VALID,0.978906,
2011-01-27, 01:08:04,VALID,917.627,VALID,0,VALID,92.7617,VALID,0.107441,VALID,19.4493,VALID,149,VALID,1.20391,
2011-01-27, 01:09:04,VALID,917.618,VALID,0,VALID,92.7236,VALID,0.107441,VALID,19.4478,VALID,149,VALID,1.29414,
2011-01-27, 01:10:04,VALID,917.618,VALID,0,VALID,92.6016,VALID,0,VALID,19.4688,VALID,143,VALID,1.21367,
2011-01-27, 01:11:04,VALID,917.596,VALID,0,VALID,92.5406,VALID,0,VALID,19.5078,VALID,144,VALID,1.14141,
2011-01-27, 01:12:04,VALID,917.582,VALID,0,VALID,92.4339,VALID,0,VALID,19.5273,VALID,135,VALID,1.41211,
2011-01-27, 01:13:04,VALID,917.602,VALID,0,VALID,92.3806,VALID,0.107441,VALID,19.5258,VALID,144,VALID,0.835547,
2011-01-27, 01:14:04,VALID,917.576,VALID,0,VALID,92.3272,VALID,0,VALID,19.5063,VALID,144,VALID,0.693359,
2011-01-27, 01:15:04,VALID,917.556,VALID,0,VALID,92.3119,VALID,0,VALID,19.5468,VALID,140,VALID,0.988281,
2011-01-27, 01:16:04,VALID,917.577,VALID,0,VALID,92.3501,VALID,0,VALID,19.5063,VALID,138,VALID,1.05078,
2011-01-27, 01:17:04,VALID,917.538,VALID,0,VALID,92.4339,VALID,0,VALID,19.5468,VALID,141,VALID,1.1332,
2011-01-27, 01:18:04,VALID,917.526,VALID,0,VALID,92.4949,VALID,0,VALID,19.5468,VALID,138,VALID,0.876172,
2011-01-27, 01:19:04,VALID,917.537,VALID,0,VALID,92.5711,VALID,0.107441,VALID,19.5273,VALID,121,VALID,1.1957,
2011-01-27, 01:20:04,VALID,917.489,VALID,0,VALID,92.6474,VALID,0,VALID,19.4868,VALID,136,VALID,0.929688,
2011-01-27, 01:21:04,VALID,917.478,VALID,0,VALID,92.7465,VALID,0,VALID,19.4673,VALID,142,VALID,1.14883,
2011-01-27, 01:22:04,VALID,917.453,VALID,0,VALID,92.8685,VALID,0,VALID,19.4868,VALID,128,VALID,1.74648,
2011-01-27, 01:23:04,VALID,917.46,VALID,0,VALID,92.9523,VALID,0,VALID,19.4883,VALID,131,VALID,1.40586,
2011-01-27, 01:24:04,VALID,917.449,VALID,0,VALID,93.1734,VALID,0.107441,VALID,19.4688,VALID,101,VALID,1.4293,
2011-01-27, 01:25:04,VALID,917.423,VALID,0,VALID,93.364,VALID,0,VALID,19.4478,VALID,130,VALID,2.34453,
2011-01-27, 01:26:04,VALID,917.404,VALID,0,VALID,93.5469,VALID,0,VALID,19.4493,VALID,114,VALID,2.06797,
2011-01-27, 01:27:04,VALID,917.398,VALID,0,VALID,93.7604,VALID,0,VALID,19.4298,VALID,119,VALID,1.94766,
2011-01-27, 01:28:04,VALID,917.36,VALID,0,VALID,93.9052,VALID,0.107441,VALID,19.4103,VALID,126,VALID,1.37539,
2011-01-27, 01:29:04,VALID,917.357,VALID,0,VALID,94.0958,VALID,0,VALID,19.3893,VALID,122,VALID,1.45547,
2011-01-27, 01:30:04,VALID,917.3,VALID,0,VALID,94.3169,VALID,0.107441,VALID,19.3518,VALID,123,VALID,2.2582,
2011-01-27, 01:31:04,VALID,917.3,VALID,0,VALID,94.4541,VALID,0.107441,VALID,19.3518,VALID,132,VALID,2.14922,
2011-01-27, 01:32:04,VALID,917.278,VALID,0,VALID,94.5304,VALID,0,VALID,19.3518,VALID,110,VALID,2.19375,
2011-01-27, 01:33:04,VALID,917.266,VALID,0,VALID,94.3931,VALID,0,VALID,19.3308,VALID,125,VALID,1.83594,
2011-01-27, 01:34:04,VALID,917.287,VALID,0,VALID,94.1797,VALID,0,VALID,19.3503,VALID,133,VALID,1.47461,
2011-01-27, 01:35:04,VALID,917.26,VALID,0,VALID,94.0043,VALID,0,VALID,19.3698,VALID,117,VALID,1.81055,
2011-01-27, 01:36:04,VALID,917.268,VALID,0,VALID,93.9129,VALID,0,VALID,19.4103,VALID,119,VALID,1.16992,
2011-01-27, 01:37:04,VALID,917.25,VALID,0,VALID,93.8595,VALID,0,VALID,19.3908,VALID,144,VALID,1.3293,
2011-01-27, 01:38:04,VALID,917.229,VALID,0,VALID,93.7528,VALID,0,VALID,19.3908,VALID,141,VALID,1.83242,
2011-01-27, 01:39:04,VALID,917.226,VALID,0,VALID,93.5851,VALID,0,VALID,19.3908,VALID,142,VALID,1.16719,
2011-01-27, 01:40:04,VALID,917.168,VALID,0,VALID,93.4859,VALID,0,VALID,19.4298,VALID,143,VALID,1.23516,
2011-01-27, 01:41:04,VALID,917.179,VALID,0,VALID,93.4097,VALID,0,VALID,19.4088,VALID,139,VALID,1.35117,
2011-01-27, 01:42:04,VALID,917.186,VALID,0,VALID,93.3564,VALID,0,VALID,19.4088,VALID,147,VALID,1.0668,
2011-01-27, 01:43:04,VALID,917.176,VALID,0,VALID,93.242,VALID,0,VALID,19.4298,VALID,145,VALID,1.18945,
2011-01-27, 01:44:04,VALID,917.194,VALID,0,VALID,93.1658,VALID,0,VALID,19.4298,VALID,113,VALID,1.1418,
2011-01-27, 01:45:04,VALID,917.16,VALID,0,VALID,93.12,VALID,0,VALID,19.4298,VALID,113,VALID,0.409766,
2011-01-27, 01:46:04,VALID,917.153,VALID,0,VALID,93.0514,VALID,0,VALID,19.3893,VALID,137,VALID,1.14648,
2011-01-27, 01:47:04,VALID,917.165,VALID,0,VALID,92.9752,VALID,0,VALID,19.4103,VALID,139,VALID,0.933984,
2011-01-27, 01:48:04,VALID,917.164,VALID,0,VALID,92.8837,VALID,0,VALID,19.4298,VALID,139,VALID,0.664453,
2011-01-27, 01:49:04,VALID,917.178,VALID,0,VALID,92.838,VALID,0.107441,VALID,19.3713,VALID,139,VALID,0.634375,
2011-01-27, 01:50:04,VALID,917.158,VALID,0,VALID,92.8075,VALID,0,VALID,19.3908,VALID,138,VALID,1.08008,
2011-01-27, 01:51:04,VALID,917.168,VALID,0,VALID,92.6702,VALID,0,VALID,19.4103,VALID,137,VALID,0.963672,
2011-01-27, 01:52:04,VALID,917.176,VALID,0,VALID,92.4568,VALID,0,VALID,19.4298,VALID,111,VALID,1.76992,
2011-01-27, 01:53:04,VALID,917.157,VALID,0,VALID,92.2586,VALID,0,VALID,19.4478,VALID,121,VALID,1.31211,
2011-01-27, 01:54:04,VALID,917.146,VALID,0,VALID,91.9003,VALID,0,VALID,19.5063,VALID,132,VALID,1.5875,
2011-01-27, 01:55:04,VALID,917.15,VALID,0,VALID,91.6716,VALID,0,VALID,19.5468,VALID,125,VALID,1.19766,
2011-01-27, 01:56:04,VALID,917.075,VALID,0,VALID,91.664,VALID,0,VALID,19.5453,VALID,125,VALID,1.00078,
2011-01-27, 01:57:04,VALID,917.103,VALID,0,VALID,91.6182,VALID,0,VALID,19.5648,VALID,125,VALID,0.699219,
2011-01-27, 01:58:04,VALID,917.08,VALID,0,VALID,91.6258,VALID,0,VALID,19.5258,VALID,125,VALID,0.857813,
2011-01-27, 01:59:04,VALID,917.085,VALID,0,VALID,91.6792,VALID,0,VALID,19.5273,VALID,125,VALID,0.162109,
2011-01-27, 02:00:04,VALID,917.102,VALID,0,VALID,91.7478,VALID,0,VALID,19.5078,VALID,146,VALID,0.974609,
2011-01-27, 02:01:04,VALID,917.111,VALID,0,VALID,91.7859,VALID,0,VALID,19.4883,VALID,146,VALID,0.537109,
2011-01-27, 02:02:04,VALID,917.123,VALID,0,VALID,91.8545,VALID,0,VALID,19.4688,VALID,146,VALID,0.666016,
2011-01-27, 02:03:04,VALID,917.14,VALID,0,VALID,91.8622,VALID,0,VALID,19.4688,VALID,146,VALID,0.494531,
2011-01-27, 02:04:04,VALID,917.128,VALID,0,VALID,91.9155,VALID,0,VALID,19.4298,VALID,146,VALID,0.561719,
2011-01-27, 02:05:04,VALID,917.102,VALID,0,VALID,91.9308,VALID,0,VALID,19.4298,VALID,146,VALID,0.155469,
2011-01-27, 02:06:04,VALID,917.092,VALID,0,VALID,91.9994,VALID,0,VALID,19.4313,VALID,146,VALID,0.402734,
2011-01-27, 02:07:04,VALID,917.097,VALID,0,VALID,91.9536,VALID,0,VALID,19.4103,VALID,136,VALID,0.872656,
2011-01-27, 02:08:04,VALID,917.099,VALID,0,VALID,91.7631,VALID,0,VALID,19.4493,VALID,135,VALID,0.769141,
2011-01-27, 02:09:04,VALID,917.097,VALID,0,VALID,91.5648,VALID,0,VALID,19.4703,VALID,135,VALID,0.787109,
2011-01-27, 02:10:04,VALID,917.04,VALID,0,VALID,91.481,VALID,0,VALID,19.4883,VALID,135,VALID,0.990625,
2011-01-27, 02:11:04,VALID,917.061,VALID,0,VALID,91.4581,VALID,0,VALID,19.4898,VALID,135,VALID,0.844922,
2011-01-27, 02:12:04,VALID,917.016,VALID,0,VALID,91.4276,VALID,0,VALID,19.4898,VALID,135,VALID,1.17891,
2011-01-27, 02:13:04,VALID,917.036,VALID,0,VALID,91.3133,VALID,0,VALID,19.5078,VALID,116,VALID,1.5707,
2011-01-27, 02:14:04,VALID,917.024,VALID,0,VALID,91.1227,VALID,0,VALID,19.5273,VALID,152,VALID,1.44297,
2011-01-27, 02:15:04,VALID,917.006,VALID,0,VALID,90.9016,VALID,0,VALID,19.5663,VALID,112,VALID,0.857031,
2011-01-27, 02:16:04,VALID,916.965,VALID,0,VALID,90.5738,VALID,0,VALID,19.6263,VALID,132,VALID,1.8082,
2011-01-27, 02:17:04,VALID,916.977,VALID,0,VALID,90.246,VALID,0,VALID,19.6638,VALID,134,VALID,1.74375,
2011-01-27, 02:18:04,VALID,917.007,VALID,0,VALID,90.063,VALID,0,VALID,19.7223,VALID,130,VALID,1.40156,
2011-01-27, 02:19:04,VALID,916.973,VALID,0,VALID,89.8191,VALID,0,VALID,19.7418,VALID,127,VALID,1.81406,
2011-01-27, 02:20:04,VALID,916.939,VALID,0,VALID,89.7581,VALID,0,VALID,19.7808,VALID,120,VALID,1.21875,
2011-01-27, 02:21:04,VALID,916.958,VALID,0,VALID,89.659,VALID,0,VALID,19.7613,VALID,116,VALID,1.83789,
2011-01-27, 02:22:04,VALID,916.958,VALID,0,VALID,89.4608,VALID,0,VALID,19.7808,VALID,111,VALID,2.1043,
2011-01-27, 02:23:04,VALID,916.968,VALID,0,VALID,89.4532,VALID,0,VALID,19.8213,VALID,94,VALID,1.82344,
2011-01-27, 02:24:04,VALID,916.91,VALID,0,VALID,89.3007,VALID,0,VALID,19.8213,VALID,113,VALID,2.49961,
2011-01-27, 02:25:04,VALID,916.925,VALID,0,VALID,89.1101,VALID,0,VALID,19.8603,VALID,140,VALID,1.94883,
2011-01-27, 02:26:04,VALID,916.928,VALID,0,VALID,89.1559,VALID,0,VALID,19.8588,VALID,109,VALID,1.57852,
2011-01-27, 02:27:04,VALID,916.922,VALID,0,VALID,89.255,VALID,0,VALID,19.8408,VALID,122,VALID,2.21992,
2011-01-27, 02:28:04,VALID,916.885,VALID,0,VALID,88.9653,VALID,0,VALID,19.8198,VALID,128,VALID,2.80273,
2011-01-27, 02:29:04,VALID,916.922,VALID,0,VALID,88.9348,VALID,0,VALID,19.8993,VALID,130,VALID,1.79766,
2011-01-27, 02:30:04,VALID,916.934,VALID,0,VALID,88.6908,VALID,0,VALID,19.8993,VALID,111,VALID,2.8625,
2011-01-27, 02:31:04,VALID,916.894,VALID,0,VALID,88.8738,VALID,0,VALID,19.8978,VALID,59,VALID,1.78359,
2011-01-27, 02:32:04,VALID,916.922,VALID,0,VALID,89.0339,VALID,0,VALID,19.8588,VALID,90,VALID,1.96797,
2011-01-27, 02:33:04,VALID,916.905,VALID,0,VALID,89.2702,VALID,0,VALID,19.8198,VALID,126,VALID,3.53242,
2011-01-27, 02:34:04,VALID,916.915,VALID,0,VALID,89.4989,VALID,0,VALID,19.7808,VALID,106,VALID,2.64297,
2011-01-27, 02:35:04,VALID,916.94,VALID,0,VALID,89.5142,VALID,0,VALID,19.7823,VALID,127,VALID,2.45977,
2011-01-27, 02:36:04,VALID,916.906,VALID,0,VALID,89.5523,VALID,0,VALID,19.7808,VALID,109,VALID,2.70508,
2011-01-27, 02:37:04,VALID,916.923,VALID,0,VALID,89.7962,VALID,0,VALID,19.7418,VALID,107,VALID,2.14961,
2011-01-27, 02:38:04,VALID,916.905,VALID,0,VALID,90.0554,VALID,0,VALID,19.7238,VALID,113,VALID,1.39492,
2011-01-27, 02:39:04,VALID,916.908,VALID,0,VALID,90.2994,VALID,0,VALID,19.6443,VALID,93,VALID,1.40937,
2011-01-27, 02:40:04,VALID,916.908,VALID,0,VALID,90.5662,VALID,0,VALID,19.6053,VALID,89,VALID,2.02344,
2011-01-27, 02:41:04,VALID,916.855,VALID,0,VALID,90.833,VALID,0,VALID,19.6068,VALID,109,VALID,2.5625,
2011-01-27, 02:42:04,VALID,916.858,VALID,0,VALID,91.0007,VALID,0,VALID,19.5468,VALID,110,VALID,1.92109,
2011-01-27, 02:43:04,VALID,916.852,VALID,0,VALID,91.2447,VALID,0,VALID,19.5078,VALID,69,VALID,1.29297,
2011-01-27, 02:44:04,VALID,916.848,VALID,0,VALID,91.2675,VALID,0,VALID,19.5288,VALID,91,VALID,2.35977,
2011-01-27, 02:45:04,VALID,916.832,VALID,0,VALID,91.2675,VALID,0,VALID,19.5288,VALID,116,VALID,1.82383,
2011-01-27, 02:46:04,VALID,916.8,VALID,0,VALID,91.3514,VALID,0,VALID,19.4883,VALID,102,VALID,1.9332,
2011-01-27, 02:47:04,VALID,916.797,VALID,0,VALID,91.4505,VALID,0,VALID,19.5078,VALID,134,VALID,2.38281,
2011-01-27, 02:48:04,VALID,916.782,VALID,0,VALID,91.4429,VALID,0,VALID,19.4883,VALID,126,VALID,1.93594,
2011-01-27, 02:49:04,VALID,916.77,VALID,0,VALID,91.3895,VALID,0,VALID,19.5273,VALID,125,VALID,2.71797,
2011-01-27, 02:50:04,VALID,916.759,VALID,0,VALID,91.3743,VALID,0,VALID,19.5078,VALID,108,VALID,1.53437,
2011-01-27, 02:51:04,VALID,916.753,VALID,0,VALID,91.4581,VALID,0,VALID,19.4883,VALID,136,VALID,1.53516,
2011-01-27, 02:52:04,VALID,916.735,VALID,0,VALID,91.5115,VALID,0,VALID,19.4673,VALID,142,VALID,3.09063,
2011-01-27, 02:53:04,VALID,916.734,VALID,0,VALID,91.4505,VALID,0,VALID,19.5078,VALID,123,VALID,1.54219,
2011-01-27, 02:54:04,VALID,916.722,VALID,0,VALID,91.3666,VALID,0,VALID,19.5078,VALID,132,VALID,2.13281,
2011-01-27, 02:55:04,VALID,916.715,VALID,0,VALID,91.42,VALID,0,VALID,19.5078,VALID,96,VALID,1.62266,
2011-01-27, 02:56:04,VALID,916.701,VALID,0,VALID,91.603,VALID,0,VALID,19.4883,VALID,105,VALID,2.4918,
2011-01-27, 02:57:04,VALID,916.727,VALID,0,VALID,91.7554,VALID,0,VALID,19.4493,VALID,129,VALID,2.11406,
2011-01-27, 02:58:04,VALID,916.686,VALID,0,VALID,91.9155,VALID,0,VALID,19.4103,VALID,132,VALID,2.42305,
2011-01-27, 02:59:04,VALID,916.677,VALID,0,VALID,92.129,VALID,0,VALID,19.3908,VALID,140,VALID,1.86367,
2011-01-27, 03:00:04,VALID,916.7,VALID,0,VALID,92.4873,VALID,0,VALID,19.3533,VALID,130,VALID,1.99414,
2011-01-27, 03:01:04,VALID,916.682,VALID,0,VALID,92.6779,VALID,0,VALID,19.3128,VALID,134,VALID,1.70156,
2011-01-27, 03:02:04,VALID,916.717,VALID,0,VALID,92.8608,VALID,0,VALID,19.2738,VALID,126,VALID,1.52734,
2011-01-27, 03:03:04,VALID,916.682,VALID,0,VALID,93.0743,VALID,0,VALID,19.2348,VALID,117,VALID,1.58516,
2011-01-27, 03:04:04,VALID,916.706,VALID,0,VALID,93.2877,VALID,0,VALID,19.2153,VALID,100,VALID,1.95273,
2011-01-27, 03:05:04,VALID,916.671,VALID,0,VALID,93.3564,VALID,0,VALID,19.2153,VALID,93,VALID,1.70469,
2011-01-27, 03:06:04,VALID,916.719,VALID,0,VALID,93.3564,VALID,0,VALID,19.2168,VALID,123,VALID,1.84453,
2011-01-27, 03:07:04,VALID,916.666,VALID,0,VALID,93.3716,VALID,0,VALID,19.1958,VALID,130,VALID,0.845312,
2011-01-27, 03:08:04,VALID,916.655,VALID,0,VALID,93.4402,VALID,0,VALID,19.1973,VALID,127,VALID,1.27383,
2011-01-27, 03:09:04,VALID,916.645,VALID,0,VALID,93.5698,VALID,0,VALID,19.1373,VALID,135,VALID,1.75469,
2011-01-27, 03:10:04,VALID,916.641,VALID,0,VALID,93.6765,VALID,0,VALID,19.0983,VALID,101,VALID,1.35664,
2011-01-27, 03:11:04,VALID,916.643,VALID,0,VALID,93.8366,VALID,0,VALID,19.0983,VALID,107,VALID,1.26055,
2011-01-27, 03:12:04,VALID,916.658,VALID,0,VALID,93.9205,VALID,0,VALID,19.0579,VALID,111,VALID,1.83047,
2011-01-27, 03:13:04,VALID,916.626,VALID,0,VALID,94.0043,VALID,0,VALID,19.0983,VALID,129,VALID,1.54766,
2011-01-27, 03:14:04,VALID,916.641,VALID,0,VALID,94.0196,VALID,0,VALID,19.0774,VALID,126,VALID,1.70039,
2011-01-27, 03:15:04,VALID,916.579,VALID,0,VALID,93.9891,VALID,0,VALID,19.0983,VALID,95,VALID,1.37266,
2011-01-27, 03:16:04,VALID,916.601,VALID,0,VALID,93.9891,VALID,0,VALID,19.0788,VALID,113,VALID,1.17148,
2011-01-27, 03:17:04,VALID,916.587,VALID,0,VALID,94.0882,VALID,0,VALID,19.0593,VALID,129,VALID,2.16016,
2011-01-27, 03:18:04,VALID,916.578,VALID,0,VALID,94.1568,VALID,0,VALID,19.0593,VALID,124,VALID,1.76797,
2011-01-27, 03:19:04,VALID,916.573,VALID,0,VALID,94.1111,VALID,0,VALID,19.0788,VALID,125,VALID,1.20234,
2011-01-27, 03:20:04,VALID,916.567,VALID,0,VALID,94.1721,VALID,0,VALID,19.0593,VALID,121,VALID,1.34258,
2011-01-27, 03:21:04,VALID,916.551,VALID,0,VALID,94.2635,VALID,0,VALID,19.0189,VALID,128,VALID,1.68828,
2011-01-27, 03:22:04,VALID,916.505,VALID,0,VALID,94.294,VALID,0,VALID,19.0203,VALID,131,VALID,1.58242,
2011-01-27, 03:23:04,VALID,916.482,VALID,0,VALID,94.3017,VALID,0,VALID,19.0203,VALID,128,VALID,1.27266,
2011-01-27, 03:24:04,VALID,916.477,VALID,0,VALID,94.2559,VALID,0,VALID,19.0398,VALID,114,VALID,0.859375,
2011-01-27, 03:25:04,VALID,916.489,VALID,0,VALID,94.1949,VALID,0,VALID,19.0608,VALID,141,VALID,1.25977,
2011-01-27, 03:26:04,VALID,916.498,VALID,0,VALID,94.1263,VALID,0,VALID,19.0593,VALID,154,VALID,1.00117,
2011-01-27, 03:27:05,VALID,916.508,VALID,0,VALID,94.073,VALID,0,VALID,19.0788,VALID,135,VALID,1.16875,
2011-01-27, 03:28:05,VALID,916.491,VALID,0,VALID,94.0272,VALID,0,VALID,19.0593,VALID,129,VALID,1.1918,
2011-01-27, 03:29:05,VALID,916.503,VALID,0,VALID,94.0043,VALID,0,VALID,19.0788,VALID,133,VALID,1.87734,
2011-01-27, 03:30:05,VALID,916.49,VALID,0,VALID,93.9815,VALID,0,VALID,19.0593,VALID,137,VALID,1.57148,
2011-01-27, 03:31:05,VALID,916.508,VALID,0,VALID,93.9738,VALID,0,VALID,19.0788,VALID,154,VALID,1.10703,
2011-01-27, 03:32:05,VALID,916.488,VALID,0,VALID,93.9357,VALID,0,VALID,19.0983,VALID,147,VALID,0.889844,
2011-01-27, 03:33:05,VALID,916.519,VALID,0,VALID,93.951,VALID,0,VALID,19.0983,VALID,154,VALID,1.33164,
2011-01-27, 03:34:05,VALID,916.49,VALID,0,VALID,94.0272,VALID,0,VALID,19.0983,VALID,138,VALID,1.59414,
2011-01-27, 03:35:05,VALID,916.507,VALID,0,VALID,94.0958,VALID,0,VALID,19.0983,VALID,135,VALID,1.00352,
2011-01-27, 03:36:05,VALID,916.498,VALID,0,VALID,94.1568,VALID,0,VALID,19.0998,VALID,140,VALID,1.11992,
2011-01-27, 03:37:05,VALID,916.489,VALID,0,VALID,94.2483,VALID,0.107441,VALID,19.0398,VALID,141,VALID,1.34766,
2011-01-27, 03:38:05,VALID,916.495,VALID,0,VALID,94.3093,VALID,0,VALID,19.0398,VALID,127,VALID,1.66172,
2011-01-27, 03:39:05,VALID,916.507,VALID,0,VALID,94.3779,VALID,0,VALID,19.0413,VALID,125,VALID,1.58125,
2011-01-27, 03:40:05,VALID,916.514,VALID,0,VALID,94.4694,VALID,0,VALID,19.0008,VALID,124,VALID,1.40742,
2011-01-27, 03:41:05,VALID,916.521,VALID,0,VALID,94.5609,VALID,0,VALID,19.0008,VALID,128,VALID,1.5793,
2011-01-27, 03:42:05,VALID,916.51,VALID,0,VALID,94.6142,VALID,0,VALID,19.0008,VALID,142,VALID,0.636328,
2011-01-27, 03:43:05,VALID,916.485,VALID,0,VALID,94.599,VALID,0,VALID,19.0008,VALID,134,VALID,1.1082,
2011-01-27, 03:44:05,VALID,916.489,VALID,0,VALID,94.5913,VALID,0,VALID,19.0008,VALID,143,VALID,1.24531,
2011-01-27, 03:45:05,VALID,916.483,VALID,0,VALID,94.5456,VALID,0,VALID,19.0218,VALID,133,VALID,1.09609,